Zurück zum Katalog

STARLINK-34958

AktivKommunikationSSO
NORAD 65237·PAYLOAD·🇺🇸 United States

Gestartet Aug 18, 2025 von Vandenberg Space Force Base

Loading…

Nächste Überflüge (nächste 24 Stunden)

TLE

AktuellSource: CelesTrak SupGP

Epoche: Sep 14, 2026, 22:49 UTC

1 65237C 25179C   26257.95118056  .00049565  00000+0  15394-2 0  2573
2 65237  97.2836 297.3066 0001124  92.2490 117.6340 15.33398773    19

Verfolge STARLINK-34958 in Echtzeit mit AllMySat

Download on the App Store